Back to catalog

SL-12 R/B

AUX MOTOR

AliveUNKNOWN
NORAD 4790·ROCKET BODY·🇷🇺 Russia

Launched Dec 2, 1970 from Baikonur Cosmodrome

Loading…

Next Passes

TLE

Source: Space-Track
1  4790U 70103C   26224.18817264  .00000104  00000-0  75731-2 0  9994
2  4790  51.5844 246.7210 1784087 156.0058 213.5356  9.05038983841161

Track SL-12 R/B in real time with AllMySat

Download on the App Store